This is the latest recevied weather packets stored in our database for station/object N9CQL. If no packets are shown the sender has not sent any weather packets the latest 10 day(s).
| Time | Temp. | Humidity | Pressure | Rain* | Wind** | Luminosity | Snow |
|---|---|---|---|---|---|---|---|
| 1777508697 | 7.78° C | 83% | 1014.4 hPa | 0 mm | - | 11 W/m² | - |
| 1777508395 | 7.78° C | 83% | 1014.5 hPa | 0 mm | - | 13 W/m² | - |
| 1777508091 | 8.33° C | 83% | 1014.5 hPa | 0 mm | - | 17 W/m² | - |
| 1777507788 | 8.33° C | 83% | 1014.1 hPa | 0 mm | - | 17 W/m² | - |
| 1777507485 | 8.33° C | 83% | 1014.2 hPa | 0 mm | - | 18 W/m² | - |
| 1777507182 | 8.33° C | 83% | 1014.4 hPa | 0 mm | - | 27 W/m² | - |
| 1777506880 | 8.33° C | 82% | 1014 hPa | 0 mm | - | 28 W/m² | - |
| 1777506577 | 8.89° C | 83% | 1014.1 hPa | 0 mm | - | 29 W/m² | - |
| 1777506273 | 8.89° C | 82% | 1014.1 hPa | 0 mm | - | 44 W/m² | - |
| 1777505969 | 8.89° C | 82% | 1014.1 hPa | 0 mm | - | 38 W/m² | - |
| 1777505665 | 8.89° C | 82% | 1014.1 hPa | 0 mm | - | 39 W/m² | - |
| 1777505362 | 9.44° C | 81% | 1014.1 hPa | 0 mm | - | 51 W/m² | - |
| 1777505058 | 9.44° C | 80% | 1014.1 hPa | 0 mm | - | 44 W/m² | - |
| 1777504756 | 9.44° C | 81% | 1014.1 hPa | 0 mm | - | 51 W/m² | - |
| 1777504453 | 9.44° C | 80% | 1014 hPa | 0 mm | - | 52 W/m² | - |
| 1777504149 | 9.44° C | 79% | 1013.9 hPa | 0 mm | - | 69 W/m² | - |
| 1777503844 | 10° C | 79% | 1014.1 hPa | 0 mm | - | 79 W/m² | - |
| 1777503541 | 10° C | 80% | 1013.7 hPa | 0 mm | - | 140 W/m² | - |
| 1777503236 | 9.44° C | 80% | 1013.7 hPa | 0 mm | - | 112 W/m² | - |
| 1777502934 | 9.44° C | 81% | 1013.7 hPa | 0 mm | - | 81 W/m² | - |
| 1777502631 | 10° C | 81% | 1013.9 hPa | 0 mm | - | 111 W/m² | - |
| 1777502328 | 10° C | 79% | 1013.9 hPa | 0 mm | - | 109 W/m² | - |
| 1777502024 | 10° C | 79% | 1013.5 hPa | 0 mm | - | 89 W/m² | - |
| 1777501721 | 10.56° C | 78% | 1013.5 hPa | 0 mm | - | 106 W/m² | - |
| 1777501419 | 11.11° C | 82% | 1013.3 hPa | 0 mm | - | 222 W/m² | - |
* Rain latest hour (hover to see other rain measurements)
** Current wind speed in m/s (hover to see current wind gust speed)